St. Paul, MN

3:27 PM CST on November 22, 2017 (GMT -0600)
Saint Paul Downtown-Holman

Weather History for KSTP - May, 2013

Change the Weather History Date:

Saturday, May 25, 2013

  Actual Average Record
Temperature  
Mean Temperature 58 °F -  
Max Temperature 63 °F 69 °F 82 °F (2008)
Min Temperature 54 °F 48 °F 41 °F (2003)
Degree Days  
Heating Degree Days 8    
Growing Degree Days 8 (Base 50)    
Moisture  
Dew Point 47 °F    
Average Humidity 69    
Maximum Humidity 86    
Minimum Humidity 54    
Precipitation  
Precipitation 0.13 in - - ()
Sea Level Pressure  
Sea Level Pressure 30.26 in    
Wind  
Wind Speed 10 mph (SE)    
Max Wind Speed 20 mph    
Max Gust Speed 26 mph    
Visibility 10 miles    
Events Rain    
Averages and records for this station are not official NWS values.
T = Trace of Precipitation, MM = Missing Value Source: NWS Daily Summary

Daily Weather History Graph

Daily Weather History Graph

Search for Another Location

Airport or City:

Trip Planner

Search our weather history database for the weather conditions in past years. The results will help you decide how hot, cold, wet, or windy it might be!

Date:

Astronomy

May. 25, 2013 Rise Set
Actual Time 5:33 AM CDT 8:45 PM CDT
Civil Twilight 4:58 AM CDT 9:21 PM CDT
Nautical Twilight 4:12 AM CDT 10:07 PM CDT
Astronomical Twilight 3:16 AM CDT 11:03 PM CDT
Moon 9:33 PM CDT (5/25) 6:01 AM CDT (5/25)
Length of Visible Light 16h 22m
Length of Day
15h 11m
Full, 100% of the Moon is Illuminated
May 25
Full
May 31
Last Quarter
Jun 8
New
Jun 16
First Quarter
Jun 23
Full

Hourly Weather History & Observations

Time (CDT) Temp. Dew Point Humidity Pressure Visibility Wind Dir Wind Speed Gust Speed Precip Events Conditions
12:53 AM 55.0 °F 51.1 °F 86% 30.27 in 5.0 mi East 5.8 mph - 0.10 in Rain Light Rain
1:53 AM 54.0 °F 50.0 °F 86% 30.26 in 10.0 mi SE 6.9 mph - 0.03 in   Overcast
2:53 AM 54.0 °F 50.0 °F 86% 30.24 in 10.0 mi ESE 6.9 mph - N/A   Overcast
3:53 AM 54.0 °F 48.9 °F 83% 30.25 in 10.0 mi East 8.1 mph - 0.00 in   Overcast
4:53 AM 54.0 °F 48.9 °F 83% 30.27 in 10.0 mi SE 8.1 mph - N/A   Overcast
5:53 AM 54.0 °F 46.9 °F 77% 30.25 in 10.0 mi ESE 10.4 mph - N/A   Overcast
6:53 AM 55.0 °F 46.9 °F 74% 30.26 in 10.0 mi SE 10.4 mph - N/A   Overcast
7:53 AM 55.9 °F 46.9 °F 72% 30.26 in 10.0 mi SE 12.7 mph - N/A   Overcast
8:53 AM 55.9 °F 46.9 °F 72% 30.26 in 10.0 mi SE 13.8 mph - N/A   Overcast
9:53 AM 57.9 °F 46.0 °F 65% 30.25 in 10.0 mi SSE 15.0 mph - N/A   Overcast
10:53 AM 60.1 °F 45.0 °F 57% 30.25 in 10.0 mi SE 13.8 mph - N/A   Overcast
11:53 AM 61.0 °F 44.1 °F 54% 30.27 in 10.0 mi SSE 17.3 mph 25.3 mph N/A   Overcast
12:53 PM 61.0 °F 45.0 °F 56% 30.27 in 10.0 mi SSE 19.6 mph 23.0 mph N/A   Overcast
1:53 PM 60.1 °F 44.1 °F 55% 30.27 in 10.0 mi SSE 17.3 mph 26.5 mph N/A   Overcast
2:53 PM 61.0 °F 45.0 °F 56% 30.27 in 10.0 mi SSE 17.3 mph 24.2 mph N/A   Overcast
3:53 PM 61.0 °F 48.0 °F 62% 30.26 in 10.0 mi SSE 13.8 mph - N/A   Overcast
4:53 PM 61.0 °F 46.9 °F 60% 30.25 in 10.0 mi SSE 12.7 mph 20.7 mph N/A   Overcast
5:53 PM 61.0 °F 46.9 °F 60% 30.25 in 10.0 mi SSE 10.4 mph - N/A   Overcast
6:53 PM 57.9 °F 46.9 °F 67% 30.24 in 10.0 mi South 11.5 mph - N/A   Overcast
7:53 PM 57.9 °F 48.0 °F 70% 30.25 in 10.0 mi South 9.2 mph - N/A   Overcast
8:53 PM 57.0 °F 48.0 °F 72% 30.24 in 10.0 mi SSE 6.9 mph - N/A   Overcast
9:53 PM 57.9 °F 44.1 °F 60% 30.25 in 10.0 mi ESE 10.4 mph - N/A   Overcast
10:53 PM 57.0 °F 46.9 °F 69% 30.26 in 10.0 mi SE 8.1 mph - N/A   Overcast
11:53 PM 55.9 °F 44.1 °F 64% 30.25 in 10.0 mi South 9.2 mph - N/A   Overcast